Windom, MN

9:07 AM CST on February 23, 2018 (GMT -0600)
Windom Municipal

Weather History for KMWM - January, 2012

Change the Weather History Date:

Sunday, January 1, 2012

  Actual Average Record
Temperature  
Mean Temperature 24 °F -  
Max Temperature 28 °F 22 °F 49 °F (1964)
Min Temperature 19 °F 4 °F -26 °F (1974)
Degree Days  
Heating Degree Days 42    
Moisture  
Dew Point 18 °F    
Average Humidity 78    
Maximum Humidity 93    
Minimum Humidity 64    
Precipitation  
Precipitation 0.00 in - - ()
Sea Level Pressure  
Sea Level Pressure 30.13 in    
Wind  
Wind Speed 28 mph (WNW)    
Max Wind Speed 38 mph    
Max Gust Speed 47 mph    
Visibility 10 miles    
Events Snow    
Averages and records for this station are not official NWS values.
T = Trace of Precipitation, MM = Missing Value Source: NWS Daily Summary

Daily Weather History Graph

Daily Weather History Graph

Search for Another Location

Airport or City:

Trip Planner

Search our weather history database for the weather conditions in past years. The results will help you decide how hot, cold, wet, or windy it might be!

Date:

Astronomy

Jan. 01, 2012 Rise Set
Actual Time 7:54 AM CST 4:53 PM CST
Civil Twilight 7:22 AM CST 5:25 PM CST
Nautical Twilight 6:45 AM CST 6:02 PM CST
Astronomical Twilight 6:10 AM CST 6:37 PM CST
Moon 11:49 AM CST (1/1) 12:42 AM CST (1/1)
Length of Visible Light 10h 03m
Length of Day
8h 58m
First Quarter, 55% of the Moon is Illuminated
Jan 1
First Quarter
Jan 9
Full
Jan 16
Last Quarter
Jan 23
New
Jan 30
First Quarter

Hourly Weather History & Observations

Time (CST) Temp. Windchill Dew Point Humidity Pressure Visibility Wind Dir Wind Speed Gust Speed Precip Events Conditions
12:13 AM 28.4 °F 12.0 °F 26.6 °F 93% 29.84 in 10.0 mi NW 33.4 mph 41.4 mph N/A   Unknown
12:33 AM 28.4 °F 12.0 °F 24.8 °F 86% 29.86 in 10.0 mi NW 33.4 mph 40.3 mph N/A   Unknown
12:52 AM 26.6 °F 9.8 °F 24.8 °F 93% 29.88 in 10.0 mi NW 32.2 mph 41.4 mph N/A   Unknown
1:13 AM 26.6 °F 11.1 °F 24.8 °F 93% 29.90 in 10.0 mi NW 26.5 mph 41.4 mph N/A   Unknown
1:32 AM 26.6 °F 10.0 °F 24.8 °F 93% 29.91 in 10.0 mi NW 31.1 mph 43.7 mph N/A   Unknown
1:52 AM 26.6 °F 9.3 °F 24.8 °F 93% 29.92 in 10.0 mi NW 34.5 mph 40.3 mph N/A   Unknown
2:13 AM 26.6 °F 10.3 °F 23.0 °F 86% 29.94 in 10.0 mi NW 29.9 mph 41.4 mph N/A   Unknown
2:32 AM 26.6 °F 10.3 °F 23.0 °F 86% 29.95 in 10.0 mi NW 29.9 mph 39.1 mph N/A   Unknown
2:52 AM 24.8 °F 8.7 °F 21.2 °F 86% 29.97 in 10.0 mi NW 26.5 mph 34.5 mph N/A   Unknown
3:13 AM 24.8 °F 9.0 °F 21.2 °F 86% 29.98 in 10.0 mi NW 25.3 mph 34.5 mph N/A   Unknown
3:32 AM 24.8 °F 9.3 °F 21.2 °F 86% 29.99 in 10.0 mi NW 24.2 mph 29.9 mph N/A   Unknown
3:53 AM 24.8 °F 10.0 °F 21.2 °F 86% 30.00 in 10.0 mi NW 21.9 mph 31.1 mph N/A   Unknown
4:13 AM 24.8 °F 8.7 °F 21.2 °F 86% 30.01 in 10.0 mi NW 26.5 mph 34.5 mph N/A   Unknown
4:32 AM 24.8 °F 8.7 °F 21.2 °F 86% 30.02 in 10.0 mi NW 26.5 mph 36.8 mph N/A   Unknown
4:53 AM 24.8 °F 9.3 °F 19.4 °F 80% 30.03 in 10.0 mi NW 24.2 mph 36.8 mph N/A   Unknown
5:12 AM 24.8 °F 11.1 °F 19.4 °F 80% 30.04 in 10.0 mi WNW 18.4 mph 29.9 mph N/A   Unknown
5:32 AM 24.8 °F 10.0 °F 19.4 °F 80% 30.05 in 10.0 mi WNW 21.9 mph 27.6 mph N/A   Unknown
5:53 AM 23.0 °F 9.2 °F 19.4 °F 86% 30.06 in 10.0 mi WNW 17.3 mph 26.5 mph N/A   Unknown
6:12 AM 23.0 °F 8.0 °F 17.6 °F 80% 30.06 in 10.0 mi WNW 20.7 mph 27.6 mph N/A   Unknown
6:32 AM 23.0 °F 8.0 °F 17.6 °F 80% 30.07 in 10.0 mi WNW 20.7 mph 27.6 mph N/A   Unknown
6:53 AM 23.0 °F 7.2 °F 17.6 °F 80% 30.07 in 10.0 mi WNW 23.0 mph 27.6 mph N/A   Unknown
7:12 AM 23.0 °F 6.9 °F 15.8 °F 74% 30.08 in 10.0 mi WNW 24.2 mph 29.9 mph N/A   Unknown
7:32 AM 23.0 °F 7.2 °F 15.8 °F 74% 30.08 in 10.0 mi WNW 23.0 mph 31.1 mph N/A   Unknown
7:52 AM 24.8 °F 7.6 °F 15.8 °F 69% 30.09 in 10.0 mi WNW 31.1 mph 39.1 mph N/A   Unknown
8:12 AM 23.0 °F 6.6 °F 15.8 °F 74% 30.09 in 10.0 mi WNW 25.3 mph 35.7 mph N/A   Unknown
8:33 AM 24.8 °F 9.0 °F 15.8 °F 69% 30.09 in 10.0 mi WNW 25.3 mph 38.0 mph N/A   Unknown
8:53 AM 24.8 °F 9.0 °F 15.8 °F 69% 30.10 in 10.0 mi WNW 25.3 mph 36.8 mph N/A   Unknown
9:12 AM 24.8 °F 7.9 °F 15.8 °F 69% 30.10 in 10.0 mi WNW 29.9 mph 35.7 mph N/A   Unknown
9:33 AM 24.8 °F 8.1 °F 17.6 °F 74% 30.11 in 10.0 mi WNW 28.8 mph 34.5 mph N/A   Unknown
9:52 AM 24.8 °F 7.9 °F 17.6 °F 74% 30.11 in 10.0 mi WNW 29.9 mph 41.4 mph N/A   Unknown
10:12 AM 26.6 °F 9.8 °F 17.6 °F 69% 30.12 in 10.0 mi WNW 32.2 mph 43.7 mph N/A   Unknown
10:32 AM 26.6 °F 9.3 °F 17.6 °F 69% 30.12 in 10.0 mi WNW 34.5 mph 44.9 mph N/A   Unknown
10:53 AM 26.6 °F 10.0 °F 15.8 °F 64% 30.13 in 10.0 mi WNW 31.1 mph 46.0 mph N/A   Unknown
11:12 AM 26.6 °F 9.3 °F 17.6 °F 69% 30.14 in 10.0 mi WNW 34.5 mph 42.6 mph N/A   Unknown
11:52 AM 24.8 °F 6.6 °F 15.8 °F 69% 30.14 in 10.0 mi WNW 35.7 mph 47.2 mph N/A   Unknown
12:12 PM 24.8 °F 7.9 °F 17.6 °F 74% 30.15 in 10.0 mi WNW 29.9 mph 43.7 mph N/A   Unknown
12:33 PM 24.8 °F 8.1 °F 17.6 °F 74% 30.15 in 10.0 mi WNW 28.8 mph 43.7 mph N/A   Unknown
12:53 PM 24.8 °F 7.3 °F 17.6 °F 74% 30.15 in 10.0 mi WNW 32.2 mph 39.1 mph N/A   Unknown
1:12 PM 24.8 °F 7.1 °F 15.8 °F 69% 30.16 in 10.0 mi WNW 33.4 mph 42.6 mph N/A   Unknown
1:33 PM 24.8 °F 6.2 °F 15.8 °F 69% 30.17 in 10.0 mi WNW 38.0 mph 46.0 mph N/A   Unknown
1:52 PM 24.8 °F 8.1 °F 17.6 °F 74% 30.18 in 10.0 mi WNW 28.8 mph 44.9 mph N/A   Unknown
2:13 PM 24.8 °F 6.8 °F 17.6 °F 74% 30.19 in 10.0 mi WNW 34.5 mph 43.7 mph N/A   Unknown
2:33 PM 24.8 °F 7.6 °F 17.6 °F 74% 30.20 in 10.0 mi WNW 31.1 mph 42.6 mph N/A   Unknown
2:52 PM 24.8 °F 7.3 °F 17.6 °F 74% 30.21 in 10.0 mi WNW 32.2 mph 41.4 mph N/A   Unknown
3:13 PM 24.8 °F 9.0 °F 17.6 °F 74% 30.23 in 10.0 mi WNW 25.3 mph 39.1 mph N/A   Unknown
3:32 PM 24.8 °F 9.0 °F 17.6 °F 74% 30.25 in 10.0 mi WNW 25.3 mph 32.2 mph N/A   Unknown
4:13 PM 24.8 °F 9.0 °F 17.6 °F 74% 30.27 in 10.0 mi WNW 25.3 mph 36.8 mph N/A   Unknown
4:32 PM 24.8 °F 9.0 °F 17.6 °F 74% 30.28 in 10.0 mi WNW 25.3 mph 34.5 mph N/A   Unknown
4:53 PM 24.8 °F 7.3 °F 17.6 °F 74% 30.30 in 10.0 mi WNW 32.2 mph 39.1 mph N/A   Unknown
5:12 PM 23.0 °F 4.9 °F 15.8 °F 74% 30.31 in 10.0 mi WNW 32.2 mph 42.6 mph N/A   Unknown
5:32 PM 23.0 °F 6.0 °F 15.8 °F 74% 30.32 in 10.0 mi WNW 27.6 mph 38.0 mph N/A   Unknown
5:53 PM 23.0 °F 7.6 °F 17.6 °F 80% 30.32 in 10.0 mi WNW 21.9 mph 35.7 mph N/A Snow Light Snow
6:12 PM 21.2 °F 4.5 °F 15.8 °F 80% 30.34 in 10.0 mi NW 24.2 mph 32.2 mph N/A   Unknown
6:32 PM 21.2 °F 4.5 °F 17.6 °F 86% 30.35 in 10.0 mi NW 24.2 mph 32.2 mph N/A   Unknown
6:53 PM 21.2 °F 5.6 °F 15.8 °F 80% 30.36 in 10.0 mi NW 20.7 mph 28.8 mph N/A   Unknown
7:12 PM 19.4 °F 2.5 °F 15.8 °F 86% 30.37 in 10.0 mi NW 23.0 mph 28.8 mph N/A   Unknown
7:32 PM 19.4 °F 2.5 °F 15.8 °F 86% 30.37 in 10.0 mi NW 23.0 mph 28.8 mph N/A Snow Light Snow
7:53 PM 21.2 °F 5.6 °F 15.8 °F 80% 30.37 in 10.0 mi NW 20.7 mph 28.8 mph N/A Snow Light Snow
8:12 PM 21.2 °F 6.0 °F 15.8 °F 80% 30.37 in 10.0 mi NW 19.6 mph 29.9 mph N/A   Unknown
8:32 PM 21.2 °F 2.4 °F 15.8 °F 80% 30.37 in 10.0 mi NW 32.2 mph 40.3 mph N/A   Unknown
8:53 PM 19.4 °F 1.4 °F 15.8 °F 86% 30.38 in 10.0 mi NW 26.5 mph 40.3 mph N/A   Unknown
9:12 PM 19.4 °F 2.5 °F 15.8 °F 86% 30.38 in 10.0 mi NW 23.0 mph 33.4 mph N/A Snow Light Snow
9:33 PM 19.4 °F 3.2 °F 15.8 °F 86% 30.38 in 10.0 mi NW 20.7 mph 28.8 mph N/A Snow Light Snow
9:52 PM 21.2 °F 6.0 °F 15.8 °F 80% 30.38 in 10.0 mi WNW 19.6 mph 29.9 mph N/A   Unknown
10:12 PM 19.4 °F 2.1 °F 15.8 °F 86% 30.37 in 10.0 mi WNW 24.2 mph 35.7 mph N/A   Unknown
10:33 PM 19.4 °F 1.8 °F 14.0 °F 80% 30.37 in 10.0 mi NW 25.3 mph 31.1 mph N/A   Unknown
10:52 PM 19.4 °F 1.8 °F 14.0 °F 80% 30.38 in 10.0 mi NW 25.3 mph 33.4 mph N/A   Unknown
11:33 PM 17.6 °F -1.9 °F 12.2 °F 79% 30.38 in 10.0 mi NW 29.9 mph 39.1 mph N/A Snow Light Snow
11:52 PM 17.6 °F -1.9 °F 12.2 °F 79% 30.38 in 10.0 mi NW 29.9 mph 36.8 mph N/A Snow Light Snow